• Unsere Gaststätte hat ab dem 20.06.2020 wieder für Sie geöffenet!

    Unsere Gaststätte hat ab dem 20.06.2020 wieder für Sie geöffenet!

    Wir freuen uns auf Ihren Besuch!

  • Frühling ist Ausbildungsbeginn !!

    Frühling ist Ausbildungsbeginn !!

    Du wolltest schon immer mal Pilot werden ?
    Jetzt ist der richtige Zeitpunkt!
    Die Ausbildung zum Segelflugpiloten findet wieder statt.
    Ab 14 Jahre geht es bereits los.
    Auch die Ausbildung zum

    zum Bericht
  • GPS Triangle WM

    GPS Triangle WM

    Die GPS WM wurde aufgrund der Corona Beschränkungen auf 2021 verschoben.

    zum Bericht
  • 1
  • 1

WebCam

  
Kamera Halle
Kamera Vorfeld

GPS Triangle WM Sports Class

AeroClub Göppingen-Salach e.V.
Ausrichter der Modellflug
GPS Triangle-WM 2020

 

Aufgrund der aktuellen Corona Situation ist die WM auf den 15.8.-20.8.2021 verschoben
Wetter EDDS

METAR

EDDS 150450Z VRB01KT CAVOK 16/16 Q1016 NOSIG =
EDDS 142300Z 1500/1524 20003KT CAVOK PROB30 TEMPO 1512/1516 4000 TSRA BKN040CB


TAF

EDDS 142300Z 1500/1524 20003KT CAVOK PROB30 TEMPO 1512/1516 4000 TSRA BKN040CB =


SR/SS

04:15 / 18:36 UTC
(EDSO 15-08-2020)